Location: Gisborne
(38.6530°S, 178.0040°E)
Time: 02:12:04
(UTC+12:00)

Resurs 01 Rocket - Pass Details

Date: 24 January 2019
Orbit: 634 x 645 km, 98.1° (Epoch: 20 April)

Event Time Altitude Azimuth Distance (km) Brightness Sun altitude
Rises 21:36:17 0° 158° (SSE) 2,974 5.3 -12.0°
Reaches altitude 10° 21:38:41 10° 149° (SSE) 2,054 4.3 -12.3°
Maximum altitude 21:42:47 35° 83° (E) 1,044 2.3 -13.0°
Enters shadow 21:45:35 17° 26° (NNE) 1,591 3.1 -13.4°
